Total_Precipitation_Accumulation
0.00 0.00 0.00 0.00 0.00 0.00 0.00 0.03 0.06 0.10 0.15 0.14 0.10 0.11 0.09 0.02 0.00 0.00 0.00 0.00 0.00 0.00
0.00 0.00 0.00 0.00 0.00 0.00 0.00 0.01 0.02 0.08 0.09 0.10 0.13 0.17 0.14 0.08 0.03 0.00 0.03 0.03 0.00 0.00
0.00 0.00 0.00 0.00 0.00 0.00 0.02 0.06 0.13 0.20 0.17 0.28 0.32 0.43 0.30 0.10 0.05 0.02 0.06 0.05 0.03 0.00
0.00 0.00 0.00 0.00 0.00 0.02 0.08 0.21 0.27 0.55 0.59 0.56 0.56 0.47 0.31 0.17 0.11 0.10 0.08 0.08 0.05 0.00
0.00 0.00 0.01 0.07 0.13 0.27 0.41 0.54 0.87 1.15 0.88 0.79 0.82 0.78 0.61 0.37 0.21 0.08 0.04 0.01 0.00 0.00
0.00 0.06 0.22 0.33 0.63 0.82 0.79 1.03 1.28 1.22 1.22 1.07 0.76 0.67 0.54 0.30 0.10 0.03 0.01 0.02 0.01 0.01
0.08 0.20 0.24 0.31 0.27 0.34 0.57 0.95 1.68 1.90 1.09 0.39 0.24 0.14 0.09 0.11 0.06 0.06 0.05 0.05 0.01 0.01
0.10 0.10 0.10 0.10 0.14 0.26 0.21 0.17 0.36 0.62 0.39 0.05 0.03 0.04 0.02 0.06 0.06 0.09 0.05 0.08 0.10 0.09
0.06 0.07 0.07 0.05 0.04 0.04 0.05 0.03 0.03 0.05 0.05 0.07 0.05 0.02 0.06 0.14 0.19 0.21 0.07 0.08 0.07 0.06
0.00 0.00 0.00 0.00 0.00 0.00 0.00 0.00 0.00 0.01 0.02 0.03 0.03 0.07 0.06 0.06 0.06 0.04 0.01 0.09 0.15 0.13
0.00 0.00 0.00 0.00 0.00 0.00 0.00 0.00 0.00 0.00 0.00 0.00 0.00 0.01 0.00 0.03 0.06 0.08 0.05 0.12 0.22 0.24
0.00 0.00 0.00 0.00 0.00 0.00 0.00 0.00 0.00 0.00 0.00 0.00 0.00 0.00 0.00 0.02 0.05 0.04 0.03 0.08 0.13 0.19
0.00 0.00 0.00 0.00 0.00 0.00 0.00 0.00 0.00 0.00 0.00 0.00 0.00 0.00 0.00 0.00 0.00 0.01 0.05 0.15 0.33 0.61
0.00 0.00 0.00 0.00 0.00 0.00 0.00 0.00 0.00 0.00 0.00 0.00 0.00 0.00 0.00 0.00 0.00 0.00 0.03 0.21 0.51 0.68